Regional Weather Roundup
Issued by NWS Green Bay, WI

Home | Current Version | Previous Version | Text Only | Print | Product List | Glossary On
Versions: 1 2 3 4 5 6 7 8 9 10 11 12 13 14 15 16 17 18 19 20 21 22 23 24 25 26 27 28 29 30 31 32 33 34 35 36 37 38 39 40 41 42 43 44 45 46 47 48 49 50
000
ASUS43 KGRB 210411
RWRGRB

NORTH-CENTRAL AND NORTHEAST WISCONSIN REGIONAL WEATHER ROUNDUP
NATIONAL WEATHER SERVICE GREEN BAY WI
1100 PM CDT FRI APR 20 2018

WIZ005-009-010>012-018-019-210500-
NORTH CENTRAL WISCONSIN

CITY           SKY/WX    TMP DP  RH WIND       PRES   REMARKS
IRONWOOD       FAIR      32  22  66 CALM      30.42R
MANITOWISH WTR FAIR      31  20  63 CALM      30.40S
ARBOR VITAE    FAIR      35  20  54 CALM      30.41S
EAGLE RIVER    FAIR      32  19  59 CALM      30.39S
LAND O LAKES   FAIR      29  19  66 CALM      30.41S
RHINELANDER    FAIR      38  18  44 W5        30.41R
PHILLIPS       FAIR      31  20  66 CALM      30.41S
ANTIGO         FAIR      33  20  59 CALM      30.42S
TOMAHAWK       FAIR      30  18  60 CALM      30.41F
MERRILL          N/A     30  18  60 CALM      30.43S
$$

WIZ013-073-210500-
NORTHEAST WISCONSIN

CITY           SKY/WX    TMP DP  RH WIND       PRES   REMARKS
IRON MOUNTAIN  FAIR      35  21  56 CALM      30.37S
MARINETTE      FAIR      42  17  36 SW6       30.43S
OCONTO         FAIR      31  20  63 CALM      30.43S
$$

WIZ017-030-035>037-045-210500-
CENTRAL WISCONSIN

CITY           SKY/WX    TMP DP  RH WIND       PRES   REMARKS
MEDFORD        FAIR      31  21  65 CALM      30.42R
WAUSAU         FAIR      34  19  54 CALM      30.41S
MOSINEE        FAIR      37  12  35 CALM      30.43S
MARSHFIELD     FAIR      36  19  50 CALM      30.41S
WISC RAPIDS    FAIR      32  16  51 CALM      30.44S
STEVENS POINT  FAIR      30  18  61 CALM      30.44S
WAUPACA        FAIR      35  22  58 CALM      30.43F
SHAWANO        FAIR      38  21  50 CALM      30.42S
CLINTONVILLE   FAIR      32  20  59 CALM      30.43S
WAUTOMA        FAIR      30  24  78 CALM      30.45R
$$

WIZ038-039-048-051-210500-
FOX VALLEY

CITY           SKY/WX    TMP DP  RH WIND       PRES   REMARKS
NWS GREEN BAY  FAIR      35  23  61 CALM      30.44S
APPLETON       PTCLDY    41  12  30 SW5       30.42S
OSHKOSH        FAIR      34  22  61 S3        30.43S
FOND DU LAC    FAIR      30  21  69 S5        30.44S
$$

WIZ022-050-052-210500-
EAST CENTRAL WISCONSIN

CITY           SKY/WX    TMP DP  RH WIND       PRES   REMARKS
EPHRAIM        FAIR      41  19  40 CALM      30.42S
WASHINGTON ISL FAIR      30  24  77 CALM      30.43S
STURGEON BAY   FAIR      40  24  53 S7        30.44S
MANITOWOC      FAIR      34  26  72 CALM      30.45S
SHEBOYGAN      FAIR      33  29  85 CALM      30.44F
$$

LMZ563-521-522-541>543-210500-
LAKESHORE

STATION/POSITION TIME  TEMP    WIND        PRES    VSBY  WAVE
                       AIR SEA DIR/SP/G                  HT/PER
                 (UTC) (F)     (DEG/KT/KT) (MB)    (MI)  (FT/S)
SHEBOYGAN LKSHOR 0400   42     230/  2/  2 1031.3F
KEWAUNEE LKSHORE 0348   35     270/  2/  2 1029.7F
NORTHPORT PIER   0340   35                 1030.5R
SISTER BAY LKSHO 0257   43        CALM       N/A
MENOMINEE LKSHOR 0348   42     170/  6/  7 1029.7S
$$



USA.gov is the U.S. government's official web portal to all federal, state and local government web resources and services.